EHI
0 0 0 0 0 0 0 0 0 0 0 0 0 0 0 0 0 0 0 0 0 0 0 0 0 0 0 0 0 0 0 0 0 0 0 0 0 0
0 0 0 0 0 0 0 0 0 0 0 0 0 0 0 0 0 0 0 0 0 0 0 0 0 0 0 0 0 0 0 0 0 0 0 0 0 0
0 0 0 0 0 0 0 0 0 0 0 0 0 0 0 0 0 0 0 0 0 0 0 0 0 0 0 0 0 0 0 0 0 0 0 0 0 0
0 0 0 0 0 0 0 0 0 0 0 0 0 0 0 0 0 0 0 0 0 0 0 0 0 0 0 0 0 0 0 0 0 0 0 0 0 0
0 0 0 0 0 0 0 0 0 0 0 0 0 0 0 0 0 0 0 0 0 0 0 0 0 0 0 0 0 0 0 0 0 0 0 0 0 0
0 0 0 0 0 0 0 0 0 0 0 0 0 0 0 0 0 0 0 0 0 0 0 0 0 0 0 0 0 0 0 0 0 0 0 0 0 0
0 0 0 0 0 0 0 0 0 0 0 0 0 0 0 0 0 0 0 0 0 0 0 0 0 0 0 0 0 0 0 0 0 0 0 0 0 0
0 0 0 0 0 0 0 0 0 0 0 0 0 0 0 0 0 0 0 0 0 0 0 0 0 0 0 0 0 0 0 0 0 0 0 0 0 0
0 0 0 0 0 0 0 0 0 0 0 0 0 0 0 0 0 0 0 0 0 0 0 0 0 0 0 0 0 0 0 0 0 0 0 0 0 0
0 0 0 0 0 0 0 0 0 0 0 0 0 0 0 0 0 0 0 0 0 0 0 0 0 0 0 0 0 0 0 0 0 0 0 0 0 0
0 0 0 0 0 0 0 0 0 0 0 0 0 0 0 0 0 0 0 0 0 0 0 0 0 0 0 0 0 0 0 0 0 0 0 0 0 0
0 0 0 0 0 0 0 0 0 0 0 0 0 0 0 0 0 0 0 0 0 0 0 0 0 0 0 0 0 0 0 0 0 0 0 0 0 0
0 0 0 0 0 0 0 0 0 0 0 0 0 0 0 0 0 0 0 0 0 0 0 0 0 0 0 0 0 0 0 0 0 0 0 0 0 0
0 0 0 0 0 0 0 0 0 0 0 0 0 0 0 0 0 0 0 0 0 0 0 0 0 0 0 0 0 0 0 0 0 0 0 0 0 0
0 0 0 0 0 0 0 0 0 0 0 0 0 0 0 0 0 0 0 0 0 0 0 0 0 0 0 0 0 0 0 0 0 0 0 0 0 0
0 0 0 0 0 0 0 0 0 0 0 0 0 0 0 0 0 0 0 0 0 0 0 0 0 0 0 0 0 0 0 0 0 0 0 0 0 0
0 0 0 0 0 0 0 0 0 0 0 0 0 0 0 0 0 0 0 0 0 0 0 0 0 0 0 0 0 0 0 0 0 0 0 0 0 0
0 0 0 0 0 0 0 0 0 0 0 0 0 0 0 0 0 0 0 0 0 0 0 0 0 0 0 0 0 0 0 0 0 0 0 0 0 0
0 0 0 0 0 0 0 0 0 0 0 0 0 0 0 0 0 0 0 0 0 0 0 0 0 0 0 0 0 0 0 0 0 0 0 0 0 0
0 0 0 0 0 0 0 0 0 0 0 0 0 0 0 0 0 0 0 0 0 0 0 0 0 0 0 0 0 0 0 0 0 0 0 0 0 0
0 0 0 0 0 0 0 0 0 0 0 0 0 0 0 0 0 0 0 0 0 0 0 0 0 0 0 0 0 0 0 0 0 0 0 0 0 0
0 0 0 0 0 0 0 0 0 0 0 0 0 0 0 0 0 0 0 0 0 0 0 0 0 0 0 0 0 0 0 0 0 0 0 0 0 0
0 0 0 0 0 0 0 0 0 0 0 0 0 0 0 0 0 0 0 0 0 0 0 0 0 0 0 0 0 0 0 0 0 0 0 0 0 0
Wind_Speed
5 5 3 3 3 3 3 4 4 2 3 3 2 2 1 2 3 2 3 4 5 6 6 5 5 5 5 5 5 5 5 6 6 7 7 7 8 9
4 5 4 3 3 3 3 3 3 3 3 3 2 2 1 1 2 2 3 4 5 5 5 5 5 5 6 6 6 6 6 7 7 8 8 9 9 10
4 5 5 4 3 3 3 3 3 3 3 2 1 1 1 1 2 1 2 2 3 5 6 6 6 6 6 7 7 7 7 7 8 9 9 10 10 11
5 5 5 4 4 3 3 4 3 3 3 3 2 1 2 2 2 2 2 2 2 5 6 6 7 7 7 7 7 7 8 8 8 8 9 10 11 11
5 6 5 5 5 4 4 4 3 2 2 2 2 1 1 1 1 2 2 2 3 4 6 7 7 8 8 8 8 8 8 8 8 8 9 10 10 12
4 5 5 5 6 5 4 4 3 3 2 2 2 2 1 1 1 2 2 2 2 2 4 5 6 7 8 8 8 8 8 8 8 8 9 9 10 11
3 4 4 5 6 5 4 4 4 3 3 3 2 2 2 2 3 2 2 2 3 2 2 2 3 3 4 6 8 8 8 9 9 9 9 10 10 11
4 3 3 4 5 6 7 7 6 5 5 4 3 4 4 4 3 2 2 1 3 1 1 3 2 3 3 3 7 9 8 8 9 9 9 10 10 11
4 3 3 3 4 3 4 5 6 7 7 5 5 5 5 5 4 3 3 3 4 2 1 3 2 4 3 4 9 9 8 8 8 9 9 10 10 11
3 4 4 3 3 3 3 2 3 4 5 5 5 5 4 4 5 4 4 3 2 1 2 3 2 3 3 3 7 8 8 8 8 9 9 10 10 10
2 2 3 3 5 5 3 3 3 3 3 5 5 4 4 4 3 2 2 1 3 2 2 2 2 2 3 3 4 6 7 7 8 8 9 9 9 9
1 2 3 4 5 5 4 4 4 3 2 2 2 2 2 2 3 3 3 3 2 2 2 2 1 1 3 2 2 2 3 6 8 8 9 9 9 5
2 1 2 4 5 5 5 4 5 3 2 2 1 1 1 1 1 1 2 3 3 3 2 2 1 1 2 3 3 2 2 3 3 5 7 9 10 7
2 2 2 4 4 4 3 3 4 3 1 1 1 1 1 1 1 1 1 1 2 3 2 2 2 2 2 3 4 3 2 2 2 3 3 7 8 10
1 2 2 2 2 2 2 3 2 2 2 2 2 2 2 1 1 1 0 0 0 1 1 2 2 2 2 3 3 3 3 3 2 3 3 4 4 4
1 2 2 2 1 1 1 1 1 1 2 2 2 1 1 1 1 1 1 0 1 2 1 1 2 3 3 4 4 4 3 3 3 4 4 5 5 4
2 1 1 1 1 1 1 1 1 1 1 1 1 1 1 1 1 0 1 0 1 2 2 2 1 2 3 3 3 4 4 4 4 4 4 6 5 4
2 1 1 1 2 2 2 1 1 1 2 2 2 2 2 2 1 1 1 1 2 2 2 1 1 2 2 2 5 4 4 4 4 4 3 5 7 5
1 1 1 2 2 2 2 2 2 2 2 2 2 2 2 2 2 2 2 1 2 2 2 1 1 1 2 4 3 3 3 4 4 4 4 5 7 7
0 1 1 1 1 2 2 2 2 2 2 2 2 2 2 2 2 2 2 3 2 2 2 2 2 2 3 4 3 4 5 4 4 5 5 5 6 9
0 1 1 1 1 2 2 2 2 2 2 2 2 2 2 2 2 3 3 3 2 2 3 3 3 3 1 1 2 4 4 6 6 5 5 5 5 5
1 1 1 1 1 1 1 2 2 2 2 2 2 3 3 3 3 3 3 3 3 3 3 3 2 1 1 2 4 5 5 5 7 9 9 8 4 4
1 1 1 1 1 1 1 2 3 3 3 3 3 3 3 3 3 3 3 3 2 2 2 2 2 1 2 2 3 4 5 6 4 4 5 8 10 13
Wind_Direction
195 192 194 196 190 186 176 174 174 216 252 243 240 230 221 223 243 238 249 263 265 269 272 277 281 285 287 286 283 284 287 288 287 283 282 286 289 293
193 191 197 195 191 188 189 190 190 197 231 230 228 241 229 240 248 240 248 267 266 264 263 265 268 269 276 279 281 279 279 277 275 277 281 283 284 288
194 195 201 192 191 191 185 186 194 189 226 256 244 249 227 250 276 267 264 254 265 265 262 263 264 267 269 273 274 273 275 274 274 274 276 279 283 286
198 195 204 192 193 192 189 196 198 195 203 237 242 230 241 238 252 271 279 272 264 272 269 267 265 268 270 271 270 271 272 275 275 274 275 278 282 286
197 197 202 194 200 198 195 198 196 195 197 206 231 221 243 241 261 279 276 272 272 276 272 267 265 270 272 271 272 273 271 270 272 273 275 277 281 282
201 200 200 200 203 197 198 198 190 189 189 198 217 222 226 235 214 252 281 276 278 282 270 271 273 275 275 275 277 277 272 269 270 272 275 278 279 279
202 204 205 204 203 200 195 193 187 192 193 205 217 218 220 211 226 225 253 285 279 252 276 275 274 269 270 275 274 270 272 271 270 271 274 276 278 279
201 204 203 205 205 208 207 201 195 195 200 206 216 223 227 221 219 221 236 270 275 254 269 282 256 264 266 260 274 275 272 273 273 276 279 279 278 279
196 194 197 203 202 198 207 213 217 219 213 207 217 225 222 216 206 219 223 232 245 240 228 272 266 267 267 272 279 275 278 281 279 279 280 281 282 281
200 195 194 199 200 194 195 209 227 231 226 221 221 226 223 213 206 215 224 240 265 243 185 256 268 272 292 283 280 277 279 285 284 281 283 285 285 286
202 194 191 198 204 197 190 207 232 251 246 226 226 228 225 222 206 183 195 221 262 252 196 224 269 297 293 283 281 286 285 292 293 289 292 292 290 291
192 201 202 203 201 193 192 199 220 235 221 226 231 240 232 214 203 203 202 213 233 249 203 197 249 317 301 283 290 299 299 299 304 301 299 299 298 289
189 203 213 203 200 201 202 206 219 216 198 199 207 212 203 198 206 212 206 201 215 235 198 172 217 229 254 293 299 289 284 293 301 300 301 300 299 294
195 206 205 197 199 200 204 200 197 187 169 177 197 219 224 228 222 207 212 212 220 232 212 190 209 216 248 276 283 292 291 281 284 291 296 304 299 296
194 198 189 182 192 198 188 182 179 175 174 196 213 226 229 224 203 185 191 189 357 305 239 213 211 221 227 245 266 281 302 298 286 291 296 297 290 286
146 147 151 157 167 161 160 195 199 189 189 203 216 226 210 189 200 191 218 262 298 306 305 245 220 212 239 251 254 270 271 279 296 300 299 293 283 263
138 125 125 142 156 167 161 161 170 179 202 206 206 215 211 206 229 191 185 190 229 271 299 318 297 256 240 237 254 259 267 274 277 294 301 297 289 272
145 161 176 194 207 210 203 204 206 205 206 205 205 205 206 207 218 221 205 211 236 253 264 282 324 340 326 278 231 250 267 273 284 290 282 286 290 287
148 182 201 216 223 220 216 212 217 214 206 203 203 203 207 211 211 216 217 223 241 251 256 247 225 215 287 293 289 230 245 279 289 289 278 272 281 291
158 198 223 233 235 232 227 222 214 202 203 206 205 207 208 208 215 220 219 222 237 250 259 250 223 218 235 257 273 280 266 264 275 284 288 284 278 285
232 240 245 247 245 239 234 226 217 211 210 210 212 213 212 211 219 224 226 236 243 240 248 254 252 273 262 273 283 281 277 275 274 272 283 294 297 298
258 255 257 255 256 246 237 228 223 218 214 215 215 215 216 213 220 224 224 225 232 239 251 263 271 267 205 237 267 278 289 298 296 291 278 261 260 275
268 266 266 264 257 252 241 232 226 224 219 218 217 216 215 220 225 224 227 226 229 239 253 270 277 263 251 247 263 278 286 295 302 307 294 288 284 280